{"data":{"norad_id":68783,"epoch":"2026-05-25T04:00:03.998880Z","epoch_age_seconds":64077,"freshness":"FRESH","line1":"1 68783U 26086T   26145.16671295 -.01903844  00000+0 -25606-1 0  9999","line2":"2 68783  97.2847 182.0245 0001313  96.4201 249.3170 15.61074701  6074","mean_motion":15.61074701,"eccentricity":0.0001313,"inclination_deg":97.2847,"raan_deg":182.0245,"arg_perigee_deg":96.4201,"mean_anomaly_deg":249.317,"bstar":-0.025606,"rev_number":607,"period_min":92.244144311451,"perigee_km":383.66356972952,"apogee_km":385.43945173243,"semimajor_km":6762.688510731,"source":"CELESTRAK","updated_at":"2026-05-25T13:38:22.037708Z"}}